Simultaneous Nadir Overpasses (SNOs) Predictions

Prediction of SNOs between TERRA and METOP-C Satellite Orbit:

Table of predicted SNOs for the next 14.0 days since TLE Epoch: 8/28/2021
Index Date (TERRA) Time (TERRA) Lat,Lon (TERRA) SZA (TERRA ) Date (METOP-C) Time (METOP-C) Lat,Lon (METOP-C) SZA (METOP-C ) Distance(km) Time Diff (sec)
1 08/30/2021 02:54:28 81.29,-178.12 74.96 08/30/2021 02:54:13 81.30,-177.97 74.98 2.60 15
2 08/30/2021 03:43:54 -81.31, -10.21 104.99 08/30/2021 03:44:52 -81.30, -10.27 104.97 1.07 58
3 09/01/2021 22:28:39 81.30,-111.48 76.03 09/01/2021 22:28:33 81.30,-111.43 76.03 0.89 6
4 09/01/2021 23:18:06 -81.30, 56.09 103.98 09/01/2021 23:19:13 -81.30, 55.92 103.96 2.76 67
5 09/04/2021 17:13:25 -81.29, 147.05 102.98 09/04/2021 17:12:13 -81.29, 147.23 102.99 3.06 72
6 09/04/2021 18:02:51 81.29, -45.27 77.05 09/04/2021 18:02:54 81.30, -45.30 77.05 0.73 3
7 09/07/2021 12:47:35 -81.30,-146.39 101.89 09/07/2021 12:46:32 -81.30,-146.22 101.90 2.99 63
8 09/07/2021 13:37:01 81.30, 21.26 78.13 09/07/2021 13:37:13 81.30, 21.20 78.13 1.07 12
9 09/10/2021 08:21:46 -81.30, -79.89 100.80 09/10/2021 08:20:53 -81.29, -80.06 100.85 3.01 53



Historial Predications of SNOs between TERRA and METOP-C
